• In Lithuania
  • List of Countries
  • For 7 days
  • Water Temperature
  • Satellite Maps
  • Weather Map
  • Weather Widgets
  • user-avatar
    Login

    Hourly Weather Strachocice

    Today, 17 July, Tuesday

    Time Temperature Precipitation Wind Pressure Humidity
    00:00 +18°C° 0.2 mm 3 mps 745 mmHg 94%
    01:00 +18°C° 0 mm 3 mps 744 mmHg 96%
    02:00 +18°C° 1.7 mm 3 mps 744 mmHg 96%
    03:00 +18°C° 1.7 mm 3 mps 744 mmHg 96%
    04:00 +18°C° 1.7 mm 3 mps 744 mmHg 97%
    05:00 +19°C° 1.9 mm 3 mps 744 mmHg 96%
    06:00 +19°C° 1.9 mm 3 mps 744 mmHg 96%
    07:00 +19°C° 0 mm 4 mps 744 mmHg 95%
    08:00 +19°C° 2 mm 4 mps 743 mmHg 93%
    09:00 +19°C° 2 mm 4 mps 743 mmHg 91%
    10:00 +20°C° 2 mm 4 mps 743 mmHg 89%
    11:00 +20°C° 0.9 mm 4 mps 743 mmHg 87%
    12:00 +21°C° 0.9 mm 5 mps 743 mmHg 84%
    13:00 +22°C° 0.9 mm 5 mps 743 mmHg 82%
    14:00 +22°C° 0.5 mm 5 mps 743 mmHg 81%
    15:00 +22°C° 0.5 mm 5 mps 743 mmHg 79%
    16:00 +23°C° 0.5 mm 6 mps 743 mmHg 78%
    17:00 +22°C° 0.3 mm 5 mps 743 mmHg 82%
    18:00 +21°C° 0.3 mm 5 mps 742 mmHg 85%
    19:00 +21°C° 0.3 mm 4 mps 742 mmHg 88%
    20:00 +20°C° 0.1 mm 4 mps 742 mmHg 91%
    21:00 +20°C° 0.1 mm 4 mps 742 mmHg 93%
    22:00 +19°C° 0.1 mm 4 mps 742 mmHg 96%
    23:00 +19°C° 0.3 mm 4 mps 742 mmHg 96%

    Tomorrow, 18 July, Wednesday

    Time Temperature Precipitation Wind Pressure Humidity
    00:00 +19°C° 0.3 mm 4 mps 742 mmHg 96%
    01:00 +19°C° 0.3 mm 4 mps 742 mmHg 96%
    02:00 +19°C° 0.7 mm 5 mps 742 mmHg 96%
    03:00 +19°C° 0.7 mm 5 mps 742 mmHg 96%
    04:00 +19°C° 0.7 mm 5 mps 742 mmHg 97%
    05:00 +20°C° 0.5 mm 5 mps 742 mmHg 96%
    06:00 +20°C° 0.5 mm 5 mps 742 mmHg 95%
    07:00 +20°C° 0.5 mm 5 mps 742 mmHg 94%
    08:00 +21°C° 0.2 mm 5 mps 742 mmHg 91%
    09:00 +22°C° 0.2 mm 5 mps 743 mmHg 88%
    10:00 +23°C° 0.2 mm 5 mps 743 mmHg 85%
    11:00 +25°C° 0.6 mm 5 mps 743 mmHg 83%
    12:00 +25°C° 0.6 mm 5 mps 743 mmHg 81%
    13:00 +26°C° 0.6 mm 5 mps 743 mmHg 79%
    14:00 +26°C° 1.1 mm 6 mps 743 mmHg 79%
    15:00 +26°C° 1.1 mm 6 mps 744 mmHg 80%
    16:00 +26°C° 1.1 mm 6 mps 744 mmHg 80%
    17:00 +24°C° 0.9 mm 6 mps 744 mmHg 83%
    18:00 +23°C° 0.9 mm 7 mps 744 mmHg 87%
    19:00 +22°C° 0.9 mm 7 mps 745 mmHg 90%
    20:00 +21°C° 1.4 mm 7 mps 745 mmHg 91%
    21:00 +21°C° 1.4 mm 6 mps 745 mmHg 93%
    22:00 +20°C° 1.4 mm 6 mps 746 mmHg 94%
    23:00 +20°C° 0.7 mm 6 mps 746 mmHg 94%

    Day after tomorrow, 19 July, Thursday

    Time Temperature Precipitation Wind Pressure Humidity
    00:00 +20°C° 0.7 mm 6 mps 746 mmHg 95%
    01:00 +20°C° 0.7 mm 5 mps 746 mmHg 95%
    02:00 +19°C° 0.4 mm 5 mps 746 mmHg 95%
    03:00 +19°C° 0.4 mm 5 mps 746 mmHg 96%
    04:00 +19°C° 0.4 mm 5 mps 746 mmHg 96%
    05:00 +19°C° 0.3 mm 4 mps 746 mmHg 95%
    06:00 +20°C° 0.3 mm 4 mps 746 mmHg 94%
    07:00 +20°C° 0.3 mm 4 mps 747 mmHg 93%
    08:00 +21°C° 0.2 mm 4 mps 747 mmHg 90%
    09:00 +22°C° 0.2 mm 4 mps 747 mmHg 86%
    10:00 +23°C° 0.2 mm 4 mps 747 mmHg 83%
    11:00 +25°C° 0.3 mm 4 mps 747 mmHg 79%
    12:00 +26°C° 0.3 mm 4 mps 747 mmHg 75%
    13:00 +26°C° 0.3 mm 4 mps 747 mmHg 70%
    14:00 +26°C° 0.6 mm 5 mps 747 mmHg 72%
    15:00 +26°C° 0.6 mm 5 mps 747 mmHg 73%
    16:00 +26°C° 0.6 mm 5 mps 747 mmHg 75%
    17:00 +25°C° 0.5 mm 5 mps 747 mmHg 78%
    18:00 +23°C° 0.5 mm 5 mps 747 mmHg 82%
    19:00 +22°C° 0.5 mm 5 mps 747 mmHg 86%
    20:00 +21°C° 0.2 mm 5 mps 748 mmHg 88%
    21:00 +20°C° 0.2 mm 4 mps 748 mmHg 91%
    22:00 +20°C° 0.2 mm 4 mps 748 mmHg 93%
    23:00 +19°C° 0.1 mm 4 mps 748 mmHg 94%

    20 July, Friday

    Time Temperature Precipitation Wind Pressure Humidity
    00:00 +19°C° 0.1 mm 4 mps 748 mmHg 95%
    01:00 +19°C° 0.1 mm 4 mps 748 mmHg 95%
    02:00 +19°C° 0.2 mm 4 mps 748 mmHg 95%
    03:00 +18°C° 0.2 mm 4 mps 748 mmHg 95%
    04:00 +18°C° 0.2 mm 4 mps 748 mmHg 96%
    05:00 +18°C° 0.2 mm 4 mps 748 mmHg 94%
    06:00 +19°C° 0.2 mm 4 mps 748 mmHg 92%
    07:00 +19°C° 0.2 mm 4 mps 748 mmHg 91%
    08:00 +20°C° 0 mm 4 mps 748 mmHg 87%
    09:00 +21°C° 0 mm 4 mps 748 mmHg 82%
    10:00 +22°C° 0 mm 4 mps 748 mmHg 78%
    11:00 +23°C° 0.1 mm 4 mps 748 mmHg 75%
    12:00 +23°C° 0.1 mm 5 mps 748 mmHg 72%
    13:00 +25°C° 0.1 mm 5 mps 748 mmHg 68%
    14:00 +25°C° 0 mm 5 mps 748 mmHg 68%
    15:00 +25°C° 0 mm 5 mps 748 mmHg 67%
    16:00 +25°C° 0 mm 5 mps 748 mmHg 67%
    17:00 +25°C° 0.1 mm 5 mps 747 mmHg 71%
    18:00 +23°C° 0.1 mm 4 mps 747 mmHg 76%
    19:00 +22°C° 0.1 mm 4 mps 747 mmHg 80%
    20:00 +21°C° 0 mm 3 mps 747 mmHg 83%
    21:00 +20°C° 0 mm 3 mps 747 mmHg 85%
    22:00 +19°C° 0 mm 3 mps 748 mmHg 88%
    23:00 +18°C° 0 mm 3 mps 747 mmHg 89%

    21 July, Saturday

    Time Temperature Precipitation Wind Pressure Humidity
    00:00 +18°C° 0 mm 3 mps 747 mmHg 90%
    01:00 +17°C° 0 mm 2 mps 747 mmHg 92%
    02:00 +17°C° 0 mm 2 mps 747 mmHg 92%
    03:00 +16°C° 0 mm 2 mps 747 mmHg 92%
    04:00 +16°C° 0 mm 2 mps 747 mmHg 92%
    05:00 +17°C° 0 mm 2 mps 747 mmHg 87%
    06:00 +18°C° 0 mm 2 mps 747 mmHg 82%
    07:00 +19°C° 0 mm 3 mps 747 mmHg 77%
    08:00 +21°C° 0 mm 3 mps 747 mmHg 71%
    09:00 +22°C° 0 mm 3 mps 747 mmHg 65%
    10:00 +25°C° 0 mm 3 mps 747 mmHg 59%
    11:00 +25°C° 0 mm 3 mps 747 mmHg 57%
    12:00 +26°C° 0 mm 4 mps 746 mmHg 55%
    13:00 +27°C° 0 mm 4 mps 746 mmHg 53%
    14:00 +27°C° 0 mm 4 mps 746 mmHg 53%
    15:00 +27°C° 0 mm 4 mps 746 mmHg 54%
    16:00 +27°C° 0 mm 3 mps 746 mmHg 54%
    17:00 +26°C° 0 mm 3 mps 746 mmHg 59%
    18:00 +25°C° 0 mm 3 mps 746 mmHg 64%
    19:00 +24°C° 0 mm 2 mps 746 mmHg 69%
    20:00 +21°C° 0 mm 2 mps 746 mmHg 71%
    21:00 +20°C° 0 mm 2 mps 746 mmHg 74%
    22:00 +19°C° 0 mm 2 mps 746 mmHg 76%
    23:00 +19°C° 0 mm 2 mps 746 mmHg 79%

    22 July, Sunday

    Time Temperature Precipitation Wind Pressure Humidity
    00:00 +18°C° 0 mm 2 mps 746 mmHg 82%
    01:00 +18°C° 0 mm 2 mps 746 mmHg 86%
    02:00 +17°C° 0 mm 2 mps 746 mmHg 87%
    03:00 +17°C° 0 mm 2 mps 746 mmHg 89%
    04:00 +16°C° 0 mm 2 mps 746 mmHg 90%
    05:00 +17°C° 0 mm 2 mps 746 mmHg 86%
    06:00 +18°C° 0 mm 2 mps 747 mmHg 81%
    07:00 +19°C° 0 mm 2 mps 747 mmHg 77%
    08:00 +20°C° 0 mm 3 mps 747 mmHg 73%
    09:00 +21°C° 0 mm 3 mps 747 mmHg 70%
    10:00 +22°C° 0 mm 3 mps 747 mmHg 66%
    11:00 +23°C° 0 mm 4 mps 747 mmHg 62%
    12:00 +25°C° 0 mm 4 mps 747 mmHg 58%
    13:00 +26°C° 0 mm 4 mps 747 mmHg 54%
    14:00 +26°C° 0 mm 4 mps 747 mmHg 54%
    15:00 +26°C° 0 mm 4 mps 747 mmHg 54%
    16:00 +26°C° 0 mm 4 mps 747 mmHg 53%
    17:00 +25°C° 0 mm 4 mps 747 mmHg 59%
    18:00 +24°C° 0 mm 3 mps 747 mmHg 65%
    19:00 +21°C° 0 mm 3 mps 747 mmHg 71%
    20:00 +20°C° 0 mm 3 mps 748 mmHg 74%
    21:00 +19°C° 0 mm 2 mps 748 mmHg 77%
    22:00 +18°C° 0 mm 2 mps 748 mmHg 80%
    23:00 +18°C° 0 mm 2 mps 748 mmHg 82%
    Show more